Hourly Data Report for June 24, 2018

OTTAWA INTL A
ONTARIO
Current Station Operator: NAVCAN

45°19'00.000" N
75°40'00.000" W
114.90 m
6106001
71628
YOW

Download Data

Hourly Data (June 2018)
Hourly Data Report for June 24, 2018
TIME
LST
Temp Definition
°C
Dew Point Definition
°C
Rel Hum Definition
%
Precip. Amount Definition
mm

Wind Dir Definition
10's deg

Wind Spd Definition
km/h
Visibility Definition
km
Stn Press Definition
kPa
Hmdx Definition


Wind Chill Definition


Weather Definition


00:00 14.8 13.7 93   3 14 24.1 99.52     Rain Showers
01:00 14.5 13.8 95   4 11 24.1 99.45     Cloudy
02:00 14.4 13.8 96   36 2 24.1 99.48     LegendNANA
03:00 15.0 13.9 93   35 11 24.1 99.55     LegendNANA
04:00 14.9 13.9 94   2 10 24.1 99.53     Mostly Cloudy
05:00 15.1 13.8 92   5 7 24.1 99.57     LegendNANA
06:00 15.8 13.8 88   1 4 24.1 99.59     LegendNANA
07:00 16.2 14.1 87   26 5 24.1 99.66     Mostly Cloudy
08:00 16.7 14.2 85   25 9 24.1 99.70     LegendNANA
09:00 18.5 14.6 78   27 7 24.1 99.66     LegendNANA
10:00 21.5 15.4 68   31 14 24.1 99.67 26   Mostly Cloudy
11:00 23.0 15.6 63   30 11 24.1 99.68 27   LegendNANA
12:00 23.9 15.2 58   34 15 24.1 99.65 28   LegendNANA
13:00 22.4 15.4 64   36 18 24.1 99.64 27   Cloudy
14:00 21.4 15.0 66   35 22 24.1 99.71 25   LegendNANA
15:00 21.1 14.5 66   34 26 24.1 99.75 25   LegendNANA
16:00 20.4 13.4 64   36 18 24.1 99.81     Cloudy
17:00 19.2 12.6 65   36 26 24.1 99.85     LegendNANA
18:00 16.9 12.8 77   34 21 24.1 99.94     LegendNANA
19:00 16.3 12.2 76   36 16 24.1 100.02     Mostly Cloudy
20:00 14.7 12.8 89   36 12 24.1 100.07     Rain Showers
21:00 14.4 11.9 85   34 9 24.1 100.16     LegendNANA
22:00 13.9 12.5 91   30 8 24.1 100.12     Mostly Cloudy
23:00 13.0 12.2 95   28 9 24.1 100.18     LegendNANA

Notes on Data Quality.

Legend

  • E = Estimated
  • M = Missing
  • NA = Not Available*
  • [empty] = Indicates an unobserved value
Date modified: